Back to catalog

FREGAT DEB

LostUNKNOWN
NORAD 46240·DEBRIS·🇷🇺 Russia

Launched Jul 18, 2011 from Baikonur Cosmodrome

Loading…

Next Passes (next 24 hours)

TLE

StaleSource: Space-Track

Epoch: May 17, 2022, 22:05 UTC

1 46240U 11037KA  22137.92047488  .00607816  00000-0  27410+0 0  9996
2 46240  50.2869 350.3563 0981628  77.5795 293.3008 12.83172993 13270

Track FREGAT DEB in real time with AllMySat

Download on the App Store